sat.trackr.live / text

‹ back to catalog

IRIDIUM 176

NORAD 43923 · 2019-002B

PAYLOAD ACTIVE UNKNOWN

§ Identity

Operator
Country
US
Launch date
2019-01-11
Launch site
AFWTR
Launch vehicle
Mass (kg)
RCS (m²)

Purposes: comms

External: N2YO · Heavens-Above · Gunter

§ Orbital elements

Epoch: 2026-09-20T02:38:14.591904Z

Period
97.81 min
Inclination
86.6092°
Eccentricity
0.0002412
Mean motion
14.72250131 rev/d
Perigee alt
652.2 km
Apogee alt
655.6 km
Semi-major
7,032.0 km
B*
5.8924e-5
RAAN
313.8703°
Arg perigee
92.6738°
Mean anomaly
267.4755°
Rev number
41,321

§ Raw data

IRIDIUM 1761 43923U 19002B   26263.10989111  .00000396  00000+0  58924-4 0  99912 43923  86.6092 313.8703 0002412  92.6738 267.4755 14.72250131413216

JSON: /api/v1/satellites/43923 · /tle

For live sub-satellite position, see the globe view (requires WebGL).

§ Visibility from observer

Set your observer location to see the next 7 days of passes ≥ 10°. The values pass through the URL so the page stays shareable.

No JS? Fill the form by hand. The geolocation button needs JavaScript.